Regional Weather Roundup
Issued by NWS

Home | Current Version | Previous Version | Graphics & Text | Print | Product List | Glossary On
Versions: 1 2 3 4 5 6 7 8 9 10 11 12 13 14 15 16 17 18 19 20 21 22 23 24 25 26 27 28 29 30 31 32 33 34 35 36 37 38 39 40 41 42 43 44 45 46 47 48 49 50
911
ASUS43 KFSD 260110
RWRSD

WEATHER ROUNDUP FOR SOUTH DAKOTA
NATIONAL WEATHER SERVICE SIOUX FALLS SD
800 PM CDT SAT MAR 25 2017

NOTE: "FAIR" INDICATES FEW OR NO CLOUDS BELOW 12,000 FEET WITH NO
SIGNIFICANT WEATHER AND/OR OBSTRUCTIONS TO VISIBILITY.


SDZ001>005-009-010-012>017-260200-
NORTHWEST AND NORTH CENTRAL SOUTH DAKOTA

CITY           SKY/WX    TMP DP  RH WIND       PRES   REMARKS
BUFFALO          N/A     55  34  45 N13       29.81R
FAITH            N/A     51  32  48 MISG      29.85R
MOBRIDGE       PTCLDY    50  31  48 E13       29.88S
$$

SDZ012>016-024>037-041>051-057-063-072>074-260200-
SOUTHWEST AND SOUTH CENTRAL SOUTH DAKOTA

CITY           SKY/WX    TMP DP  RH WIND       PRES   REMARKS
RAPID CTY ARPT CLOUDY    56  34  43 N10       29.80F
PIERRE         CLOUDY    48  33  56 E16       29.89S
CUSTER         CLOUDY    49  28  44 NE3       29.86S
ELLSWORTH AFB  CLOUDY    58  34  41 N10       29.80F
PHILIP         PTCLDY    57  22  25 E14       29.81S
PINE RIDGE     CLOUDY    61  32  33 S8        29.80S
SPEARFISH      FAIR      54  36  50 NE3       29.86R
WINNER         FAIR      46  35  65 SE14      29.91R
$$

SDZ004>011-016>023-039-040-260200-
NORTHEAST SOUTH DAKOTA

CITY           SKY/WX    TMP DP  RH WIND       PRES   REMARKS
ABERDEEN       PTCLDY    38  31  76 E12       29.99R
WATERTOWN      CLOUDY    35  34  96 E9        30.00F FOG     WCI  28
BROOKINGS      CLOUDY    38  36  92 E9        29.99S FOG
SISSETON         N/A     37  34  89 S9        30.02F
$$

SDZ017-020-022-023-036>040-048>070-260200-
SOUTHEAST SOUTH DAKOTA

CITY           SKY/WX    TMP DP  RH WIND       PRES   REMARKS
SIOUX FALLS    CLOUDY    41  38  89 E13       29.99S
HURON          CLOUDY    42  37  82 E10       29.98S
CHAMBERLAIN    CLOUDY    44  37  77 E6        29.95R
MITCHELL       CLOUDY    43  38  82 E10       29.98S
YANKTON        CLOUDY    39  37  93 E10       29.98S
$$

ABBREVIATIONS USED IN REMARKS
   TC - TEMPERATURE IN CELSIUS
  WCI - WIND CHILL INDEX
   HX - HEAT INDEX
  VSB - VISIBILITY





USA.gov is the U.S. government's official web portal to all federal, state and local government web resources and services.